Al-Kharj, Saudi Arabia

11:15 AM AST on December 27, 2014 (GMT +0300)
Prince Sultan Air Base | Change Station
CLOSE
Current Station
Airport
Location: Al Kharj Air Base,
Elevation: 1640 ft
Nearby Weather Stations

Elev 1640 ft 24.07 °N, 47.58 °E | Updated 2 hours ago

Clear
Clear
61 °F
Feels Like 61 °F
N
8
Wind Variable Wind from South

Today
High -- | Low -- °F
--% Chance of Precip.
Yesterday
High -- | Low -- °F
Precip. -- in
6:32 AM 5:11 PM
Waxing Crescent, 34% visible
Pressure 30.27 in
Visibility -9999.0 miles
Clouds
Dew Point 23 °F
Humidity 23%
Rainfall 0.00 in
Snow Depth Not available.
UV Not available.
Pollen Not available.
Air Quality Not available.
Flu Activity Not available.
METAR OEKJ 270600Z 18007KT CAVOK 16/M05 Q1025

More Conditions Fewer Conditions

Pressure 30.27 in
Visibility -9999.0 miles
Clouds
Dew Point 23 °F
Humidity 23%
Rainfall 0.00 in
Snow Depth Not available.
UV Not available.
Pollen Not available.
Air Quality Not available.
Flu Activity Not available.
METAR OEKJ 270600Z 18007KT CAVOK 16/M05 Q1025

More Conditions Fewer Conditions

10-Day Weather Forecast

Almanac

Astronomy

Dec. 27, 2014 Rise Set
Actual Time
Civil Twilight
Nautical Twilight
Astronomical Twilight
Moon
Length of Visible Light
Length of Day
Tomorrow will be .
, % of the Moon is Illuminated

Today's Extremes

Country Highs Country Lows

Community

WunderPhotos

Upload Photos

1,780,863 photos uploaded!

WunderBlogs® & News

Nearby

Air Quality

  Air Quality AQ Index Pollutant
Not available.

Snow Depth

Station Depth Elevation

Earthquake Activity

City Distance Mag. Time & Date
Minimum magnitude displayed is 2.5.

Coastal Water Temperatures

Place Temperature

Nearby Weather Stations